STARLINK-1471 (45735 NORAD) Tracking and Keplerian Element Data

This shows tracking and keplerian element data for the satellite.

Feedback or suggestion? Click here.




ElementValue
Catalog45735
NameSTARLINK-1471
Epoch Orbit549
Epoch Day192.16668981
Epoch Year2020
RAAN166.2555
Inclination53.0022
Eccentricity0.0001317
Argument of Perigee84.9885
Mean Anonmoly82.9529
Mean Motion15.42920535
Decay Rate-0.0117525
L11 45735U 20038F 20192.16668981 -.01175250 00000-0 -28878-1 0 9993
L22 45735 53.0022 166.2555 0001317 84.9885 82.9529 15.42920535 5491

Live tracking and technical data element details for STARLINK-1471 (NORAD 45735). STARLINK-1471 can be tracked NOW for your location showing map with azimuth and elevation plus other details from your city location.

Track the satellite on the map from your city or location and see movement details for azimuth, elevation, latitude, longitude, range, height, and movement on the map or in text.







IsCatalogInMostPopularTable: catalog: 45735, numindb: 4
Update: records affected: 1



GetName: 45735 STARLINK-1471

Hit Count: updated at: Fri, 10 Jul 2020 16:19:00 GMT